www.pogodaiklimat.ru

Погода и климат >> Архив погоды >> Ирак >> Багдад


АРХИВ ПОГОДЫ в Багдаде

Время (UTC), дата Ветер
(напр.,м/с)
 
Видим.   Явления Облачность Т
(С)
Тd
(С)
f
(%)
Тe
(С)
Тes
(С)
Комфортность P
(гПа)
Po
(гПа)
Тmin
(С)
Tmax
(С)
R
(мм)
R24
(мм)
S
(см)
06 16.08 СЗ 5 10 км ясно +35.4 +19.7 40 +41 +47 опасность
перегрева
1004.1 1000.3 +29.9
12 16.08 СЗ 6 10 км ясно +42.2 +5.6 11 +39 +44 очень
жарко
1001.9 998.2
15 16.08 СЗ 5 10 км ясно +40.4 +7.4 14 +38 +38 очень
жарко
1001.0 997.3
18 16.08 З 4 10 км ясно +33.4 +8.0 21 +32 +32 жарко 1002.3 998.5 +43.4
21 16.08 СЗ 4 10 км ясно +30.8 +9.0 26 +30 +30 жарко 1002.3 998.5
00 17.08 С 3 10 км ясно +27.7 +11.5 37 +29 +29 жарко 1001.7 997.8
03 17.08 З 4 10 км ясно +24.7 +10.5 41 +26 +26 жарко 1002.1 998.2
06 17.08 СЗ 8 10 км ясно +33.4 +11.6 27 +33 +35 жарко 1002.6 998.8 +24.5
09 17.08 СЗ 8 10 км ясно +39.0 +9.8 17 +37 +41 очень
жарко
1002.1 998.4
12 17.08 З 6 10 км ясно +40.2 +8.9 15 +38 +43 очень
жарко
1000.5 996.8
15 17.08 СЗ 6 10 км ясно +38.8 +10.6 18 +37 +38 очень
жарко
999.4 995.7
18 17.08 З 3 10 км ясно +31.8 +12.2 30 +32 +32 жарко 999.8 996.0 +40.7
21 17.08 З 1 10 км ясно +29.4 +13.8 38 +31 +31 жарко 999.6 995.8
00 18.08 СЗ 2 10 км ясно +28.0 +15.8 47 +31 +31 душно 999.4 995.6
03 18.08 ЮЗ 3 10 км ясно +26.7 +16.3 53 +30 +30 душно 1000.6 996.7
06 18.08 СЗ 6 10 км ясно +34.9 +16.6 34 +38 +42 очень
душно
1001.6 997.8 +25.6
09 18.08 СЗ 6 10 км ясно +39.2 +15.8 25 +41 +48 опасность
перегрева
1001.6 997.9
15 18.08 СЗ 5 10 км ясно +40.9 +10.6 16 +39 +40 очень
жарко
1001.2 997.5
18 18.08 СЗ 2 10 км ясно +33.6 +13.1 29 +34 +34 очень
жарко
1002.6 998.8 +43.0
21 18.08 С 3 10 км ясно +31.8 +11.5 29 +32 +32 жарко 1002.5 998.7
00 19.08 СВ 3 10 км ясно +31.2 +12.5 32 +32 +32 жарко 1002.5 998.7
03 19.08 З 1 10 км ясно +27.0 +13.9 45 +29 +30 жарко 1004.3 1000.4
09 19.08 З 2 10 км ясно +41.9 +12.3 17 +41 +60 опасность
перегрева
1005.4 1001.7
12 19.08 З 1 10 км ясно +44.2 +6.4 10 +41 +54 опасность
перегрева
1004.4 1000.7
15 19.08 З 3 10 км ясно +41.4 +7.9 13 +39 +39 очень
жарко
1004.0 1000.3
18 19.08 СЗ 3 10 км ясно +35.0 +10.3 22 +34 +34 очень
жарко
1004.6 1000.8 +44.6
21 19.08 СЗ 1 10 км ясно +31.0 +11.0 29 +31 +31 жарко 1004.6 1000.8
00 20.08 СЗ 1 10 км ясно +27.4 +12.9 41 +29 +29 жарко 1004.4 1000.5
03 20.08 СЗ 1 10 км ясно +24.5 +11.6 44 +26 +26 жарко 1005.5 1001.6
06 20.08 С 2 10 км ясно +38.2 +9.8 18 +37 +47 очень
жарко
1006.1 1002.4 +24.4
09 20.08 С 3 10 км ясно +44.5 +5.7 10 +42 +58 опасность
перегрева
1006.1 1002.4
12 20.08 З 2 10 км ясно +45.8 +6.0 9 +43 +54 опасность
перегрева
1004.6 1000.9
15 20.08 З 4 10 км ясно +44.0 +7.0 11 +42 +42 опасность
перегрева
1004.1 1000.4
18 20.08 С 3 10 км ясно +34.8 +11.6 25 +35 +35 очень
жарко
1004.7 1000.9 +46.4
21 20.08 С 2 10 км ясно +31.2 +11.0 29 +31 +31 жарко 1004.0 1000.2
00 21.08 З 2 10 км ясно +27.4 +12.7 40 +29 +29 жарко 1003.6 999.7
03 21.08 В 2 10 км 1/0
[Ac trans]
+26.7 +11.5 39 +28 +28 жарко 1004.5 1000.6
06 21.08 З 4 8000 м пыль ясно +35.2 +13.7 28 +36 +43 очень
жарко
1006.0 1002.2 +26.3
09 21.08 З 6 10 км ясно +42.2 +13.6 19 +42 +50 опасность
перегрева
1005.2 1001.5
15 21.08 З 6 10 км ясно +42.5 +10.0 15 +41 +41 опасность
перегрева
1003.2 999.5
18 21.08 З 7 10 км ясно +36.4 +11.2 22 +36 +36 очень
жарко
1004.2 1000.4 +45.7
21 21.08 СЗ 6 10 км ясно +34.0 +9.7 23 +33 +33 жарко 1004.8 1001.0
00 22.08 С 5 10 км ясно +29.8 +9.0 27 +29 +29 жарко 1004.9 1001.1
03 22.08 СЗ 4 10 км ясно +27.0 +9.2 33 +27 +27 жарко 1005.0 1001.1
06 22.08 С 5 10 км ясно +35.6 +11.9 24 +35 +41 очень
жарко
1005.6 1001.8 +26.2
09 22.08 СЗ 8 10 км ясно +41.1 +7.9 14 +39 +42 очень
жарко
1004.6 1000.9
15 22.08 З 6 10 км ясно +39.6 +6.3 13 +37 +37 очень
жарко
1003.2 999.5
21 22.08 СЗ 4 10 км ясно +30.5 +12.4 33 +31 +31 жарко 1004.5 1000.7
00 23.08 С 4 10 км ясно +29.0 +12.3 36 +30 +30 жарко 1003.9 1000.0
03 23.08 СЗ 4 10 км ясно +24.8 +9.7 38 +26 +26 жарко 1004.2 1000.3

 

Местоположение метеостанции Багдад (Ирак): широта 33.23 долгота 44.23 высота над уровнем моря 34 м.

В архиве по умолчанию представлена погода в Багдаде за последнюю неделю. Архивные данные за месяц целиком и за предыдущие месяцы, начиная с января 2011 года, Вы можете получить, выбрав интересующий диапазон дат из раскрывающегося списка и нажав кнопку "Ввод!".


*Определитесь, кто Вы:
робот инопланетянин человек

Внимание! Время в таблицах - всемирное. Для получения местного времени необходимо прибавить поправку, которая равна 3 ч.

Смотрите также архив погоды в соседних городах и на ближайших метеорологических станциях:

Погода в Айн Аль-Тамаре (Ирак) (58 км)
Погода в Хите (Ирак) (63 км)
Погода в Кербеле (Ирак) (71 км)
Погода в Эль-Халисе (Ирак) (72 км)
Погода в Эль-Азизии (Ирак) (86 км)
Погода в Эр-Рамади (Ирак) (88 км)
Погода в Хелле (Ирак) (89 км)
Погода в Наджафе (Ирак) (139 км)
Погода в Дивании (Ирак) (156 км)
Погода в Тикрите (Ирак) (157 км)

Пояснения к столбцам:

Ветер - указаны скорость ветра в м/с - средняя за 10 мин, порывы в срок и между сроками (в фигурных скобках) и направление, откуда дует ветер: С - северный, СВ - северо-восточный, В - восточный, ЮВ - юго-восточный, Ю - южный, ЮЗ - юго-западный, З - западный, СЗ - северо-западный.
Видимость - горизонтальная дальность видимости в метрах или километрах. При видимости от 1 до 10 км при отсутствии осадков обычно наблюдается дымка, при ухудшении видимости до 1 км и менее - туман. В сухую погоду видимость может ухудшаться дымом, пылью или мглою.
Явления - указаны атмосферные явления, наблюдавшиеся в срок или в последний час перед сроком; фигурными скобками обозначены явления, наблюдавшиеся между сроками (за 1-3 часа до срока); квадратными скобками обозначены град или гололедные отложения с указанием их диаметра в мм.
Облачность - указаны через наклонную черту общая и нижняя облачность в баллах и высота нижней границы облаков в метрах; квадратными скобками обозначены формы облаков: Ci - перистые, Cs - перисто-слоистые, Cc - перисто-кучевые, Ac - высококучевые, As - высокослоистые, Sc - слоисто-кучевые, Ns - слоисто-дождевые, Cu - кучевые, Cb - кучево-дождевые. Подробнее классификацию облаков см. в Атласе облаков (PDF).
T - Температура воздуха - температура, измеренная на высоте 2 м над землей.
Td - Температура точки росы - температура, при понижении до которой содержащийся в воздухе водяной пар достигнет насыщения.
f - Относительная влажность воздуха - влажноcть воздуха, измеренная на высоте 2 м над землей.
Te - Эффективная температура - температура, которую ощущает одетый по сезону человек в тени. Характеристика душности погоды. При расчете учитывается влияние влажности воздуха и скорости ветра на теплоощущения человека.
Tes - Эффективная температура на солнце - температура, которую ощущает человек, с поправкой на солнечный нагрев. Характеристика знойности погоды. Зависит от высоты солнца над горизонтом, облачности и скорости ветра. Ночью, в пасмурную погоду, а также при ветре 12 м/с и более поправка равна нулю.
P - Атмосферное давление - приведенное к уровню моря атмосферное давление.
Po - Атмосферное давление - измеренное на уровне метеостанции атмосферное давление.
Tmin - Минимальная температура - минимум температуры воздуха на высоте 2 м над землей.
Tmax - Максимальная температура - максимум температуры воздуха на высоте 2 м над землей.
R - Количество осадков - Количество выпавших осадков за период времени, мм. При наведении курсора мыши на число - период времени, за который выпало указанное количество осадков.
R24 - Количество осадков - Количество выпавших осадков за 24 часа, мм.
S - Снежный покров - Высота снежного покрова, см. При наведении курсора мыши на число - состояние снежного покрова и степень покрытия местности в баллах.